Tracking 32968 objects as of 18-Jan-2026
HD Live streaming from Space Station
objects crossing your sky now

COSMOS 1818 COOLANT

Track COSMOS 1818 COOLANT now!
10-day predictions


NORAD ID: 34174
Int'l Code: 1987-011E
Perigee: 750.7 km
Apogee: 770.7 km
Inclination: 65.0 °
Period: 99.9 minutes
Semi major axis: 7131 km
RCS: 0.0023 m2 (small)
Launch date: February 1, 1987
Source: Commonwealth of Independent States (former USSR) (CIS)
Launch site: TYURATAM MISSILE AND SPACE COMPLEX (TTMTR)

Note: This is SATELLITE DEBRIS
Your satellite tracking list
Your tracking list is empty




NASA's NSSDC Master Catalog

Two Line Element Set (TLE):
1 34174U 87011E   26011.92897639  .00001412  00000-0  46478-3 0  9999
2 34174  65.0014 249.2578 0013989 286.8271  91.2697 14.41500068321300
Source of the keplerian elements: AFSPC